• In Netherlands
  • List of Countries
  • For 7 days
  • Water Temperature
  • Satellite Maps
  • Weather Map
  • Weather Widgets
  • user-avatar
    Login

    Hourly Weather Prutz

    Today, 17 August, Thursday

    Time Temperature Precipitation Wind Pressure Humidity
    00:00 +12°C° 0.1 mm 1 mps 638 mmHg 90%
    01:00 +12°C° 0.1 mm 1 mps 638 mmHg 90%
    02:00 +11°C° 0 mm 1 mps 638 mmHg 90%
    03:00 +11°C° 0 mm 1 mps 637 mmHg 90%
    04:00 +11°C° 0 mm 1 mps 637 mmHg 89%
    05:00 +12°C° 0 mm 1 mps 638 mmHg 86%
    06:00 +14°C° 0 mm 1 mps 638 mmHg 82%
    07:00 +15°C° 0 mm 1 mps 639 mmHg 79%
    08:00 +18°C° 0 mm 1 mps 640 mmHg 70%
    09:00 +18°C° 0 mm 0 mps 640 mmHg 60%
    10:00 +20°C° 0 mm 0 mps 641 mmHg 51%
    11:00 +23°C° 0.1 mm 1 mps 641 mmHg 50%
    12:00 +23°C° 0.1 mm 1 mps 641 mmHg 48%
    13:00 +24°C° 0.1 mm 1 mps 641 mmHg 46%
    14:00 +24°C° 0.1 mm 1 mps 640 mmHg 49%
    15:00 +23°C° 0.1 mm 1 mps 640 mmHg 52%
    16:00 +23°C° 0.1 mm 2 mps 640 mmHg 55%
    17:00 +21°C° 0.2 mm 1 mps 639 mmHg 64%
    18:00 +19°C° 0.2 mm 1 mps 639 mmHg 73%
    19:00 +18°C° 0.2 mm 1 mps 639 mmHg 83%
    20:00 +16°C° 0 mm 1 mps 638 mmHg 86%
    21:00 +14°C° 0 mm 1 mps 638 mmHg 89%
    22:00 +13°C° 0 mm 1 mps 638 mmHg 92%
    23:00 +13°C° 0 mm 1 mps 638 mmHg 91%

    Tomorrow, 18 August, Friday

    Time Temperature Precipitation Wind Pressure Humidity
    00:00 +13°C° 0 mm 1 mps 638 mmHg 90%
    01:00 +13°C° 0 mm 1 mps 638 mmHg 90%
    02:00 +13°C° 0 mm 2 mps 638 mmHg 90%
    03:00 +13°C° 0 mm 2 mps 638 mmHg 90%
    04:00 +13°C° 0 mm 2 mps 637 mmHg 89%
    05:00 +14°C° 0 mm 2 mps 638 mmHg 88%
    06:00 +15°C° 0 mm 2 mps 638 mmHg 86%
    07:00 +16°C° 0 mm 2 mps 638 mmHg 84%
    08:00 +18°C° 0 mm 2 mps 639 mmHg 75%
    09:00 +20°C° 0 mm 2 mps 639 mmHg 65%
    10:00 +23°C° 0 mm 1 mps 640 mmHg 56%
    11:00 +24°C° 0 mm 2 mps 640 mmHg 54%
    12:00 +25°C° 0 mm 2 mps 640 mmHg 51%
    13:00 +25°C° 0 mm 2 mps 639 mmHg 48%
    14:00 +25°C° 0.6 mm 2 mps 639 mmHg 53%
    15:00 +24°C° 0.6 mm 2 mps 638 mmHg 58%
    16:00 +23°C° 0.6 mm 2 mps 638 mmHg 64%
    17:00 +21°C° 1.4 mm 2 mps 637 mmHg 71%
    18:00 +20°C° 1.4 mm 1 mps 637 mmHg 78%
    19:00 +18°C° 1.4 mm 1 mps 636 mmHg 85%
    20:00 +17°C° 1.1 mm 2 mps 636 mmHg 88%
    21:00 +16°C° 1.1 mm 2 mps 636 mmHg 91%
    22:00 +15°C° 1.1 mm 2 mps 636 mmHg 94%
    23:00 +14°C° 3.5 mm 2 mps 636 mmHg 95%

    Day after tomorrow, 19 August, Saturday

    Time Temperature Precipitation Wind Pressure Humidity
    00:00 +13°C° 3.5 mm 2 mps 636 mmHg 96%
    01:00 +13°C° 3.5 mm 2 mps 636 mmHg 97%
    02:00 +12°C° 5 mm 2 mps 636 mmHg 97%
    03:00 +12°C° 5 mm 2 mps 636 mmHg 97%
    04:00 +10°C° 5 mm 2 mps 635 mmHg 98%
    05:00 +10°C° 3.8 mm 2 mps 636 mmHg 97%
    06:00 +9°C° 3.8 mm 2 mps 636 mmHg 97%
    07:00 +9°C° 3.8 mm 2 mps 636 mmHg 96%
    08:00 +10°C° 0.6 mm 2 mps 636 mmHg 94%
    09:00 +10°C° 0.6 mm 2 mps 637 mmHg 93%
    10:00 +12°C° 0.6 mm 2 mps 637 mmHg 91%
    11:00 +13°C° 0.1 mm 2 mps 638 mmHg 83%
    12:00 +14°C° 0.1 mm 2 mps 638 mmHg 75%
    13:00 +15°C° 0.1 mm 2 mps 638 mmHg 67%
    14:00 +15°C° 0.2 mm 2 mps 638 mmHg 67%
    15:00 +15°C° 0.2 mm 2 mps 638 mmHg 66%
    16:00 +16°C° 0.2 mm 3 mps 638 mmHg 66%
    17:00 +14°C° 0.1 mm 2 mps 638 mmHg 73%
    18:00 +13°C° 0.1 mm 2 mps 638 mmHg 80%
    19:00 +12°C° 0.1 mm 2 mps 638 mmHg 87%
    20:00 +10°C° 0 mm 2 mps 638 mmHg 89%
    21:00 +9°C° 0 mm 2 mps 638 mmHg 91%
    22:00 +8°C° 0 mm 2 mps 638 mmHg 93%
    23:00 +9°C° 0 mm 1 mps 638 mmHg 94%

    20 August, Sunday

    Time Temperature Precipitation Wind Pressure Humidity
    00:00 +9°C° 0 mm 1 mps 638 mmHg 94%
    01:00 +8°C° 0 mm 1 mps 638 mmHg 94%
    02:00 +8°C° 0 mm 1 mps 638 mmHg 95%
    03:00 +7°C° 0 mm 1 mps 638 mmHg 95%
    04:00 +7°C° 0 mm 1 mps 638 mmHg 95%
    05:00 +8°C° 0 mm 1 mps 638 mmHg 92%
    06:00 +8°C° 0 mm 1 mps 639 mmHg 89%
    07:00 +9°C° 0 mm 1 mps 639 mmHg 86%
    08:00 +11°C° 0 mm 1 mps 640 mmHg 75%
    09:00 +13°C° 0 mm 1 mps 641 mmHg 63%
    10:00 +15°C° 0 mm 2 mps 642 mmHg 51%
    11:00 +16°C° 0 mm 2 mps 642 mmHg 46%
    12:00 +17°C° 0 mm 2 mps 642 mmHg 41%
    13:00 +18°C° 0 mm 2 mps 642 mmHg 37%
    14:00 +18°C° 0 mm 2 mps 642 mmHg 38%
    15:00 +18°C° 0 mm 2 mps 641 mmHg 39%
    16:00 +18°C° 0 mm 2 mps 641 mmHg 41%
    17:00 +16°C° 0 mm 2 mps 641 mmHg 51%
    18:00 +14°C° 0 mm 2 mps 640 mmHg 62%
    19:00 +12°C° 0 mm 1 mps 640 mmHg 73%
    20:00 +11°C° 0 mm 1 mps 640 mmHg 76%
    21:00 +10°C° 0 mm 1 mps 640 mmHg 80%
    22:00 +8°C° 0 mm 1 mps 639 mmHg 84%
    23:00 +8°C° 0 mm 1 mps 639 mmHg 80%

    21 August, Monday

    Time Temperature Precipitation Wind Pressure Humidity
    00:00 +8°C° 0 mm 1 mps 639 mmHg 77%
    01:00 +8°C° 0 mm 1 mps 639 mmHg 73%
    02:00 +8°C° 0 mm 1 mps 639 mmHg 69%
    03:00 +8°C° 0 mm 1 mps 639 mmHg 65%
    04:00 +8°C° 0 mm 1 mps 639 mmHg 61%
    05:00 +10°C° 0 mm 1 mps 639 mmHg 57%
    06:00 +11°C° 0 mm 1 mps 640 mmHg 54%
    07:00 +13°C° 0 mm 1 mps 640 mmHg 50%
    08:00 +16°C° 0 mm 1 mps 641 mmHg 44%
    09:00 +19°C° 0 mm 1 mps 641 mmHg 38%
    10:00 +22°C° 0 mm 1 mps 642 mmHg 33%
    11:00 +22°C° 0 mm 1 mps 642 mmHg 33%
    12:00 +23°C° 0 mm 1 mps 642 mmHg 32%
    13:00 +24°C° 0 mm 1 mps 642 mmHg 32%
    14:00 +24°C° 0 mm 1 mps 641 mmHg 35%
    15:00 +24°C° 0 mm 2 mps 641 mmHg 37%
    16:00 +24°C° 0 mm 2 mps 640 mmHg 39%
    17:00 +21°C° 0 mm 1 mps 640 mmHg 51%
    18:00 +19°C° 0 mm 1 mps 639 mmHg 63%
    19:00 +14°C° 0 mm 0 mps 638 mmHg 75%
    20:00 +14°C° 0 mm 1 mps 638 mmHg 77%
    21:00 +13°C° 0 mm 1 mps 637 mmHg 79%
    22:00 +13°C° 0 mm 1 mps 637 mmHg 81%
    23:00 +12°C° 0 mm 1 mps 637 mmHg 80%

    22 August, Tuesday

    Time Temperature Precipitation Wind Pressure Humidity
    00:00 +12°C° 0 mm 1 mps 637 mmHg 79%
    01:00 +12°C° 0 mm 1 mps 637 mmHg 79%
    02:00 +12°C° 0 mm 1 mps 636 mmHg 78%
    03:00 +12°C° 0 mm 1 mps 636 mmHg 77%
    04:00 +11°C° 0 mm 1 mps 636 mmHg 77%
    05:00 +13°C° 0 mm 1 mps 636 mmHg 74%
    06:00 +14°C° 0 mm 1 mps 636 mmHg 71%
    07:00 +15°C° 0 mm 1 mps 637 mmHg 68%
    08:00 +19°C° 0 mm 1 mps 637 mmHg 60%
    09:00 +21°C° 0 mm 1 mps 638 mmHg 52%
    10:00 +23°C° 0 mm 1 mps 638 mmHg 44%
    11:00 +23°C° 0 mm 2 mps 638 mmHg 43%
    12:00 +24°C° 0 mm 2 mps 638 mmHg 43%
    13:00 +24°C° 0 mm 2 mps 638 mmHg 42%
    14:00 +23°C° 0.2 mm 2 mps 637 mmHg 48%
    15:00 +23°C° 0.2 mm 2 mps 637 mmHg 53%
    16:00 +21°C° 0.2 mm 2 mps 637 mmHg 59%
    17:00 +19°C° 0.9 mm 2 mps 636 mmHg 70%
    18:00 +17°C° 0.9 mm 2 mps 636 mmHg 81%
    19:00 +15°C° 0.9 mm 1 mps 636 mmHg 91%
    20:00 +15°C° 0.6 mm 1 mps 636 mmHg 93%
    21:00 +14°C° 0.6 mm 1 mps 636 mmHg 94%
    22:00 +14°C° 0.6 mm 1 mps 637 mmHg 96%
    23:00 +13°C° 0.4 mm 1 mps 636 mmHg 96%
    Show more